Location: Ariel
(45.9570°N, 122.5700°W)
Time: 02:14:02
(UTC-07:00)

Transit 4A - Pass Details

Date: 22 July 2019
Orbit: 863 x 981 km, 66.8° (Epoch: 24 August)

Event Time Altitude Azimuth Distance (km) Brightness Sun altitude
Rises 06:32:12 0° 304° (NW) 3,691 10.7 7.1°
Reaches altitude 10° 06:37:24 10° 340° (NNW) 2,739 10.4 7.9°
Maximum altitude 06:39:02 11° 355° (N) 2,667 10.6 8.2°
Drops below altitude 10° 06:40:39 10° 10° (N) 2,731 10.8 8.4°
Sets 06:45:48 0° 45° (NE) 3,658 12.3 9.3°
